PIMOHWEATHER Station Historical Data
Daily Summary for January 07, 2020 Units:  Metric    English   Both
Daily Weekly Monthly Yearly
  High: Low: Average:
Temperature: 34.0 °C 24.0 °C 28.1 °C
Dew Point: 25.0 °C 21.0 °C 23.1 °C
Humidity: 91% 58% 75%
Wind Speed: 20km/h 0km/h 8.2km/h
Wind Gust: 24km/h - -
Wind- - South
Pressure: 1014.3 hPa 1009.8 hPa -
Precipitation: 2.03 mm    
 
 
Tabular Data for January 07, 2020
Time Temperature Dew Point Pressure Wind Wind Speed Wind Gust Humidity Rainfall Rate (Hourly) solar
00:04 27.0 °C 22.0 °C 1013.7 hPa NNW 8 km/h 8 km/h 74% 0.00 mm 0.00 W/m2
00:09 27.0 °C 22.0 °C 1013.3 hPa NW 8 km/h 8 km/h 75% 0.00 mm 0.00 W/m2
00:14 27.0 °C 22.0 °C 1013.3 hPa NW 5 km/h 12 km/h 75% 0.00 mm 0.00 W/m2
00:19 26.0 °C 22.0 °C 1013.3 hPa NNW 5 km/h 8 km/h 75% 0.00 mm 0.00 W/m2
00:24 26.0 °C 22.0 °C 1013.3 hPa North 5 km/h 8 km/h 75% 0.00 mm 0.00 W/m2
00:29 26.0 °C 22.0 °C 1013.3 hPa NW 12 km/h 12 km/h 76% 0.00 mm 0.00 W/m2
00:34 26.0 °C 22.0 °C 1013.3 hPa NW 9 km/h 12 km/h 77% 0.00 mm 0.00 W/m2
00:39 26.0 °C 22.0 °C 1013.3 hPa NW 10 km/h 12 km/h 77% 0.00 mm 0.00 W/m2
00:44 26.0 °C 22.0 °C 1013.3 hPa NW 8 km/h 12 km/h 77% 0.00 mm 0.00 W/m2
00:49 26.0 °C 22.0 °C 1013.3 hPa NNW 7 km/h 8 km/h 77% 0.00 mm 0.00 W/m2
00:54 26.0 °C 22.0 °C 1013.0 hPa NW 5 km/h 8 km/h 78% 0.00 mm 0.00 W/m2
00:59 26.0 °C 22.0 °C 1013.0 hPa NW 6 km/h 8 km/h 78% 0.00 mm 0.00 W/m2
01:04 26.0 °C 21.0 °C 1013.0 hPa NW 6 km/h 8 km/h 77% 0.00 mm 0.00 W/m2
01:09 26.0 °C 21.0 °C 1013.0 hPa North 6 km/h 8 km/h 77% 0.00 mm 0.00 W/m2
01:14 26.0 °C 22.0 °C 1013.0 hPa NNE 4 km/h 4 km/h 78% 0.00 mm 0.00 W/m2
01:19 26.0 °C 21.0 °C 1013.0 hPa North 5 km/h 8 km/h 77% 0.00 mm 0.00 W/m2
01:24 26.0 °C 22.0 °C 1013.0 hPa NNW 3 km/h 8 km/h 78% 0.00 mm 0.00 W/m2
01:29 26.0 °C 22.0 °C 1012.8 hPa North 5 km/h 8 km/h 78% 0.00 mm 0.00 W/m2
01:34 26.0 °C 22.0 °C 1012.7 hPa NNW 8 km/h 8 km/h 78% 0.00 mm 0.00 W/m2
01:39 26.0 °C 22.0 °C 1012.7 hPa NNW 5 km/h 8 km/h 78% 0.00 mm 0.00 W/m2
01:44 26.0 °C 21.0 °C 1012.9 hPa NNW 5 km/h 8 km/h 78% 0.00 mm 0.00 W/m2
01:49 26.0 °C 21.0 °C 1012.7 hPa NW 7 km/h 8 km/h 78% 0.00 mm 0.00 W/m2
01:54 26.0 °C 21.0 °C 1012.7 hPa NW 7 km/h 8 km/h 78% 0.00 mm 0.00 W/m2
01:59 26.0 °C 21.0 °C 1012.7 hPa NW 6 km/h 8 km/h 78% 0.00 mm 0.00 W/m2
02:04 26.0 °C 22.0 °C 1012.7 hPa NW 6 km/h 12 km/h 79% 0.00 mm 0.00 W/m2
02:09 26.0 °C 22.0 °C 1012.7 hPa NW 8 km/h 12 km/h 79% 0.00 mm 0.00 W/m2
02:14 26.0 °C 22.0 °C 1012.7 hPa NW 7 km/h 12 km/h 79% 0.00 mm 0.00 W/m2
02:19 26.0 °C 22.0 °C 1012.5 hPa NW 8 km/h 8 km/h 79% 0.00 mm 0.00 W/m2
02:24 25.0 °C 22.0 °C 1012.7 hPa NW 10 km/h 12 km/h 80% 0.00 mm 0.00 W/m2
02:29 25.0 °C 22.0 °C 1012.7 hPa WNW 7 km/h 8 km/h 80% 0.00 mm 0.00 W/m2
02:34 25.0 °C 22.0 °C 1012.3 hPa NW 5 km/h 8 km/h 80% 0.00 mm 0.00 W/m2
02:39 25.0 °C 22.0 °C 1012.3 hPa NW 6 km/h 8 km/h 81% 0.00 mm 0.00 W/m2
02:44 25.0 °C 22.0 °C 1012.3 hPa NW 8 km/h 12 km/h 81% 0.00 mm 0.00 W/m2
02:49 25.0 °C 22.0 °C 1012.3 hPa NW 8 km/h 12 km/h 81% 0.00 mm 0.00 W/m2
02:54 25.0 °C 22.0 °C 1012.3 hPa NNW 5 km/h 8 km/h 81% 0.00 mm 0.00 W/m2
02:59 25.0 °C 22.0 °C 1012.3 hPa NNW 6 km/h 8 km/h 82% 0.00 mm 0.00 W/m2
03:04 25.0 °C 22.0 °C 1012.3 hPa NNW 6 km/h 8 km/h 82% 0.00 mm 0.00 W/m2
03:09 25.0 °C 22.0 °C 1012.3 hPa NW 8 km/h 12 km/h 82% 0.00 mm 0.00 W/m2
03:14 25.0 °C 22.0 °C 1012.0 hPa NNW 9 km/h 12 km/h 82% 0.00 mm 0.00 W/m2
03:19 25.0 °C 22.0 °C 1012.0 hPa NNW 8 km/h 12 km/h 82% 0.00 mm 0.00 W/m2
03:24 25.0 °C 22.0 °C 1012.0 hPa NNW 8 km/h 8 km/h 82% 0.00 mm 0.00 W/m2
03:29 25.0 °C 22.0 °C 1012.0 hPa North 7 km/h 8 km/h 82% 0.00 mm 0.00 W/m2
03:34 25.0 °C 22.0 °C 1012.2 hPa NNE 8 km/h 12 km/h 82% 0.00 mm 0.00 W/m2
03:39 25.0 °C 22.0 °C 1012.0 hPa NNE 4 km/h 8 km/h 83% 0.00 mm 0.00 W/m2
03:44 25.0 °C 22.0 °C 1012.0 hPa North 5 km/h 8 km/h 83% 0.00 mm 0.00 W/m2
03:49 25.0 °C 22.0 °C 1012.3 hPa North 5 km/h 8 km/h 83% 0.00 mm 0.00 W/m2
03:54 25.0 °C 22.0 °C 1012.3 hPa North 3 km/h 4 km/h 83% 0.00 mm 0.00 W/m2
03:59 25.0 °C 22.0 °C 1012.3 hPa North 6 km/h 12 km/h 83% 0.00 mm 0.00 W/m2
04:04 25.0 °C 22.0 °C 1012.3 hPa North 9 km/h 12 km/h 83% 0.00 mm 0.00 W/m2
04:09 25.0 °C 22.0 °C 1012.3 hPa NNW 5 km/h 12 km/h 83% 0.00 mm 0.00 W/m2
04:14 25.0 °C 21.0 °C 1012.3 hPa North 7 km/h 12 km/h 83% 0.00 mm 0.00 W/m2
04:19 25.0 °C 22.0 °C 1012.5 hPa North 8 km/h 8 km/h 84% 0.00 mm 0.00 W/m2
04:24 25.0 °C 22.0 °C 1012.3 hPa North 10 km/h 12 km/h 84% 0.00 mm 0.00 W/m2
04:29 25.0 °C 22.0 °C 1012.3 hPa NNW 8 km/h 12 km/h 84% 0.00 mm 0.00 W/m2
04:34 24.0 °C 21.0 °C 1012.3 hPa North 9 km/h 12 km/h 84% 0.00 mm 0.00 W/m2
04:39 24.0 °C 21.0 °C 1012.5 hPa North 6 km/h 8 km/h 84% 0.00 mm 0.00 W/m2
04:44 24.0 °C 21.0 °C 1012.6 hPa North 5 km/h 8 km/h 84% 0.00 mm 0.00 W/m2
04:49 24.0 °C 21.0 °C 1012.7 hPa NNW 6 km/h 8 km/h 84% 0.00 mm 0.00 W/m2
04:54 24.0 °C 21.0 °C 1012.7 hPa NW 7 km/h 8 km/h 84% 0.00 mm 0.00 W/m2
04:59 24.0 °C 22.0 °C 1012.7 hPa NW 13 km/h 16 km/h 85% 0.00 mm 0.00 W/m2
05:04 24.0 °C 22.0 °C 1012.7 hPa NW 13 km/h 16 km/h 86% 0.00 mm 0.00 W/m2
05:09 24.0 °C 22.0 °C 1012.9 hPa NW 9 km/h 16 km/h 86% 0.00 mm 0.00 W/m2
05:14 24.0 °C 22.0 °C 1013.0 hPa NW 10 km/h 12 km/h 86% 0.00 mm 0.00 W/m2
05:19 24.0 °C 22.0 °C 1013.0 hPa NW 5 km/h 8 km/h 86% 0.00 mm 0.00 W/m2
05:24 24.0 °C 22.0 °C 1013.0 hPa NW 10 km/h 12 km/h 87% 0.00 mm 0.00 W/m2
05:29 24.0 °C 22.0 °C 1013.0 hPa NW 10 km/h 12 km/h 87% 0.00 mm 0.00 W/m2
05:34 24.0 °C 22.0 °C 1013.0 hPa NNW 8 km/h 12 km/h 87% 0.00 mm 0.00 W/m2
05:39 24.0 °C 22.0 °C 1013.0 hPa NW 8 km/h 12 km/h 87% 0.00 mm 0.00 W/m2
05:44 24.0 °C 22.0 °C 1013.0 hPa NW 9 km/h 12 km/h 87% 0.00 mm 0.00 W/m2
05:49 24.0 °C 22.0 °C 1013.0 hPa NNW 14 km/h 16 km/h 88% 0.00 mm 0.00 W/m2
05:54 24.0 °C 22.0 °C 1013.0 hPa NW 9 km/h 12 km/h 88% 0.00 mm 0.00 W/m2
05:59 24.0 °C 22.0 °C 1013.4 hPa North 5 km/h 8 km/h 88% 0.00 mm 0.00 W/m2
06:04 24.0 °C 22.0 °C 1013.4 hPa North 9 km/h 16 km/h 88% 0.00 mm 0.00 W/m2
06:09 24.0 °C 22.0 °C 1013.4 hPa NNW 11 km/h 16 km/h 87% 0.00 mm 0.00 W/m2
06:14 24.0 °C 22.0 °C 1013.4 hPa NNW 9 km/h 12 km/h 87% 0.00 mm 0.00 W/m2
06:19 24.0 °C 22.0 °C 1013.4 hPa NNW 10 km/h 12 km/h 87% 0.00 mm 0.00 W/m2
06:24 24.0 °C 22.0 °C 1013.4 hPa NNW 10 km/h 16 km/h 87% 0.00 mm 1.86 W/m2
06:29 24.0 °C 22.0 °C 1013.4 hPa NW 11 km/h 16 km/h 87% 0.00 mm 6.77 W/m2
06:34 24.0 °C 22.0 °C 1013.4 hPa North 12 km/h 16 km/h 87% 0.00 mm 11.53 W/m2
06:39 24.0 °C 22.0 °C 1013.6 hPa NNW 8 km/h 8 km/h 87% 0.00 mm 18.76 W/m2
06:44 24.0 °C 22.0 °C 1013.6 hPa NNW 10 km/h 12 km/h 87% 0.00 mm 23.23 W/m2
06:49 24.0 °C 22.0 °C 1013.5 hPa NNW 8 km/h 12 km/h 87% 0.00 mm 29.25 W/m2
06:54 24.0 °C 22.0 °C 1013.7 hPa NNW 14 km/h 16 km/h 86% 0.00 mm 36.34 W/m2
06:59 24.0 °C 22.0 °C 1013.7 hPa North 14 km/h 16 km/h 86% 0.00 mm 42.18 W/m2
07:04 24.0 °C 22.0 °C 1013.7 hPa North 10 km/h 12 km/h 86% 0.00 mm 43.97 W/m2
07:09 24.0 °C 22.0 °C 1013.9 hPa North 10 km/h 12 km/h 85% 0.00 mm 43.83 W/m2
07:14 25.0 °C 22.0 °C 1013.9 hPa North 15 km/h 20 km/h 85% 0.00 mm 42.36 W/m2
07:19 25.0 °C 22.0 °C 1014.0 hPa North 12 km/h 16 km/h 84% 0.00 mm 34.50 W/m2
07:24 25.0 °C 22.0 °C 1014.0 hPa North 12 km/h 16 km/h 84% 0.00 mm 47.88 W/m2
07:29 25.0 °C 22.0 °C 1014.0 hPa North 10 km/h 12 km/h 83% 0.00 mm 47.43 W/m2
07:34 25.0 °C 22.0 °C 1014.0 hPa North 14 km/h 16 km/h 83% 0.00 mm 49.95 W/m2
07:39 25.0 °C 22.0 °C 1014.0 hPa North 9 km/h 12 km/h 83% 0.00 mm 55.36 W/m2
07:44 25.0 °C 22.0 °C 1014.0 hPa NNE 10 km/h 16 km/h 82% 0.00 mm 57.78 W/m2
07:49 26.0 °C 22.0 °C 1014.0 hPa NNE 12 km/h 16 km/h 81% 0.00 mm 60.26 W/m2
07:54 26.0 °C 22.0 °C 1014.0 hPa NNW 10 km/h 16 km/h 81% 0.00 mm 63.01 W/m2
07:59 26.0 °C 22.0 °C 1014.0 hPa NW 14 km/h 16 km/h 80% 0.00 mm 67.39 W/m2
08:04 26.0 °C 22.0 °C 1014.0 hPa NW 11 km/h 12 km/h 80% 0.00 mm 73.52 W/m2
08:09 26.0 °C 22.0 °C 1014.3 hPa North 12 km/h 16 km/h 79% 0.00 mm 80.13 W/m2
08:14 26.0 °C 22.0 °C 1014.0 hPa NNW 13 km/h 16 km/h 79% 0.00 mm 86.51 W/m2
08:19 27.0 °C 22.0 °C 1014.0 hPa North 12 km/h 16 km/h 78% 0.00 mm 93.17 W/m2
08:24 27.0 °C 22.0 °C 1014.0 hPa NW 10 km/h 12 km/h 77% 0.00 mm 100.58 W/m2
08:29 27.0 °C 22.0 °C 1014.0 hPa North 12 km/h 16 km/h 76% 0.00 mm 108.75 W/m2
08:34 27.0 °C 22.0 °C 1014.0 hPa North 14 km/h 16 km/h 76% 0.00 mm 120.18 W/m2
08:39 27.0 °C 22.0 °C 1014.0 hPa NW 17 km/h 20 km/h 76% 0.00 mm 126.81 W/m2
08:44 28.0 °C 23.0 °C 1013.9 hPa NW 13 km/h 20 km/h 76% 0.00 mm 134.37 W/m2
08:49 28.0 °C 23.0 °C 1014.0 hPa NNW 19 km/h 24 km/h 75% 0.00 mm 140.29 W/m2
08:54 28.0 °C 23.0 °C 1014.0 hPa NW 17 km/h 20 km/h 75% 0.00 mm 147.61 W/m2
08:59 28.0 °C 23.0 °C 1014.0 hPa NW 15 km/h 16 km/h 75% 0.00 mm 157.47 W/m2
09:04 28.0 °C 23.0 °C 1014.0 hPa NNW 15 km/h 20 km/h 75% 0.00 mm 170.19 W/m2
09:09 28.0 °C 23.0 °C 1014.0 hPa NW 18 km/h 20 km/h 75% 0.00 mm 181.05 W/m2
09:14 28.0 °C 23.0 °C 1014.0 hPa North 17 km/h 24 km/h 73% 0.00 mm 185.16 W/m2
09:19 29.0 °C 23.0 °C 1014.0 hPa North 10 km/h 16 km/h 72% 0.00 mm 198.25 W/m2
09:24 29.0 °C 23.0 °C 1014.0 hPa NNE 11 km/h 12 km/h 70% 0.00 mm 205.72 W/m2
09:29 29.0 °C 23.0 °C 1014.0 hPa North 10 km/h 12 km/h 69% 0.00 mm 214.38 W/m2
09:34 29.0 °C 23.0 °C 1014.0 hPa NNE 10 km/h 12 km/h 69% 0.00 mm 227.96 W/m2
09:39 30.0 °C 23.0 °C 1014.0 hPa NNE 15 km/h 16 km/h 69% 0.00 mm 234.02 W/m2
09:44 29.0 °C 23.0 °C 1014.0 hPa North 14 km/h 16 km/h 69% 0.00 mm 244.55 W/m2
09:49 30.0 °C 23.0 °C 1014.2 hPa North 10 km/h 12 km/h 70% 0.00 mm 258.81 W/m2
09:54 31.0 °C 23.0 °C 1014.0 hPa East 12 km/h 16 km/h 68% 0.00 mm 260.94 W/m2
09:59 31.0 °C 23.0 °C 1014.0 hPa NE 10 km/h 12 km/h 65% 0.00 mm 265.39 W/m2
10:04 32.0 °C 23.0 °C 1014.0 hPa ESE 6 km/h 8 km/h 64% 0.00 mm 287.49 W/m2
10:09 32.0 °C 23.0 °C 1014.0 hPa East 8 km/h 12 km/h 62% 0.00 mm 297.44 W/m2
10:14 32.0 °C 23.0 °C 1013.9 hPa ESE 9 km/h 12 km/h 62% 0.00 mm 300.67 W/m2
10:19 32.0 °C 24.0 °C 1013.8 hPa NE 7 km/h 12 km/h 62% 0.00 mm 312.56 W/m2
10:24 32.0 °C 24.0 °C 1013.9 hPa ESE 6 km/h 12 km/h 61% 0.00 mm 318.75 W/m2
10:29 32.0 °C 24.0 °C 1013.7 hPa SE 6 km/h 8 km/h 61% 0.00 mm 328.52 W/m2
10:34 32.0 °C 23.0 °C 1013.6 hPa NNE 9 km/h 12 km/h 62% 0.00 mm 335.81 W/m2
10:39 32.0 °C 23.0 °C 1013.6 hPa South 15 km/h 20 km/h 62% 0.00 mm 341.26 W/m2
10:44 32.0 °C 24.0 °C 1013.4 hPa North 10 km/h 16 km/h 63% 0.00 mm 335.15 W/m2
10:49 32.0 °C 24.0 °C 1013.2 hPa NNE 18 km/h 20 km/h 63% 0.00 mm 345.94 W/m2
10:54 32.0 °C 23.0 °C 1013.2 hPa North 13 km/h 20 km/h 62% 0.00 mm 355.72 W/m2
10:59 32.0 °C 23.0 °C 1013.2 hPa SSE 6 km/h 8 km/h 61% 0.00 mm 359.17 W/m2
11:04 33.0 °C 24.0 °C 1013.1 hPa South 8 km/h 12 km/h 61% 0.00 mm 375.35 W/m2
11:09 33.0 °C 24.0 °C 1012.9 hPa East 18 km/h 24 km/h 60% 0.00 mm 378.50 W/m2
11:14 32.0 °C 24.0 °C 1012.9 hPa ESE 8 km/h 8 km/h 61% 0.00 mm 379.26 W/m2
11:19 33.0 °C 24.0 °C 1012.9 hPa ENE 8 km/h 12 km/h 60% 0.00 mm 394.48 W/m2
11:24 33.0 °C 24.0 °C 1012.5 hPa NNE 11 km/h 16 km/h 60% 0.00 mm 395.36 W/m2
11:29 33.0 °C 24.0 °C 1012.5 hPa NE 6 km/h 12 km/h 60% 0.00 mm 410.58 W/m2
11:34 34.0 °C 24.0 °C 1012.5 hPa ENE 9 km/h 12 km/h 58% 0.00 mm 447.70 W/m2
11:39 34.0 °C 24.0 °C 1012.5 hPa SE 10 km/h 12 km/h 58% 0.00 mm 429.88 W/m2
11:44 33.0 °C 24.0 °C 1012.5 hPa ENE 16 km/h 20 km/h 61% 0.00 mm 399.52 W/m2
11:49 33.0 °C 24.0 °C 1012.2 hPa North 15 km/h 20 km/h 61% 0.00 mm 393.21 W/m2
11:54 33.0 °C 24.0 °C 1012.2 hPa NNW 12 km/h 16 km/h 61% 0.00 mm 220.94 W/m2
11:59 32.0 °C 24.0 °C 1011.9 hPa North 14 km/h 16 km/h 61% 0.00 mm 176.72 W/m2
12:04 32.0 °C 24.0 °C 1011.9 hPa NNE 13 km/h 16 km/h 62% 0.00 mm 189.76 W/m2
12:09 33.0 °C 24.0 °C 1011.8 hPa SE 5 km/h 8 km/h 61% 0.00 mm 190.11 W/m2
12:14 33.0 °C 24.0 °C 1011.5 hPa SE 17 km/h 20 km/h 67% 0.00 mm 228.52 W/m2
12:19 32.0 °C 25.0 °C 1011.5 hPa SE 20 km/h 24 km/h 69% 0.00 mm 504.83 W/m2
12:24 32.0 °C 25.0 °C 1011.5 hPa South 15 km/h 24 km/h 68% 0.00 mm 444.69 W/m2
12:29 32.0 °C 25.0 °C 1011.2 hPa SSE 14 km/h 20 km/h 67% 0.00 mm 396.07 W/m2
12:34 33.0 °C 25.0 °C 1011.2 hPa South 10 km/h 16 km/h 65% 0.00 mm 398.62 W/m2
12:39 32.0 °C 25.0 °C 1011.2 hPa SSE 13 km/h 16 km/h 67% 0.00 mm 258.90 W/m2
12:44 32.0 °C 25.0 °C 1011.0 hPa SSE 12 km/h 16 km/h 67% 0.00 mm 223.38 W/m2
12:49 31.0 °C 25.0 °C 1010.8 hPa South 15 km/h 16 km/h 67% 0.00 mm 204.38 W/m2
12:54 31.0 °C 25.0 °C 1010.8 hPa SSE 8 km/h 12 km/h 67% 0.00 mm 188.83 W/m2
12:59 31.0 °C 25.0 °C 1010.8 hPa SSE 13 km/h 16 km/h 67% 0.00 mm 170.87 W/m2
13:04 31.0 °C 25.0 °C 1010.8 hPa SSE 13 km/h 16 km/h 68% 0.00 mm 161.25 W/m2
13:09 31.0 °C 25.0 °C 1010.8 hPa South 10 km/h 16 km/h 69% 0.00 mm 145.39 W/m2
13:14 31.0 °C 25.0 °C 1010.5 hPa South 8 km/h 12 km/h 69% 0.00 mm 152.57 W/m2
13:19 31.0 °C 25.0 °C 1010.5 hPa SSE 10 km/h 12 km/h 69% 0.00 mm 152.72 W/m2
13:24 31.0 °C 24.0 °C 1010.5 hPa SSE 9 km/h 12 km/h 69% 0.00 mm 143.99 W/m2
13:29 31.0 °C 25.0 °C 1010.5 hPa SSE 13 km/h 16 km/h 73% 0.00 mm 136.46 W/m2
13:34 31.0 °C 25.0 °C 1010.5 hPa SSE 12 km/h 16 km/h 73% 0.00 mm 130.18 W/m2
13:39 30.0 °C 25.0 °C 1010.5 hPa SSE 10 km/h 12 km/h 73% 0.00 mm 119.71 W/m2
13:44 30.0 °C 24.0 °C 1010.5 hPa SSE 10 km/h 12 km/h 71% 0.00 mm 117.29 W/m2
13:49 30.0 °C 24.0 °C 1010.5 hPa South 10 km/h 12 km/h 72% 0.00 mm 99.21 W/m2
13:54 30.0 °C 24.0 °C 1010.5 hPa SSE 9 km/h 12 km/h 72% 0.00 mm 116.31 W/m2
13:59 31.0 °C 25.0 °C 1010.3 hPa South 9 km/h 12 km/h 71% 0.00 mm 167.03 W/m2
14:04 31.0 °C 25.0 °C 1010.2 hPa SSW 10 km/h 12 km/h 71% 0.00 mm 195.68 W/m2
14:09 31.0 °C 24.0 °C 1010.2 hPa South 8 km/h 12 km/h 70% 0.00 mm 263.19 W/m2
14:14 31.0 °C 24.0 °C 1010.1 hPa South 9 km/h 12 km/h 68% 0.00 mm 233.04 W/m2
14:19 31.0 °C 24.0 °C 1010.0 hPa South 7 km/h 12 km/h 69% 0.00 mm 211.70 W/m2
14:24 32.0 °C 25.0 °C 1009.9 hPa South 4 km/h 4 km/h 69% 0.00 mm 201.04 W/m2
14:29 32.0 °C 25.0 °C 1010.1 hPa SSE 13 km/h 16 km/h 69% 0.00 mm 191.17 W/m2
14:34 31.0 °C 25.0 °C 1010.1 hPa South 11 km/h 16 km/h 70% 0.00 mm 179.32 W/m2
14:39 31.0 °C 24.0 °C 1009.9 hPa South 8 km/h 12 km/h 68% 0.00 mm 203.05 W/m2
14:44 31.0 °C 24.0 °C 1009.9 hPa South 7 km/h 8 km/h 68% 0.00 mm 158.29 W/m2
14:49 31.0 °C 24.0 °C 1009.9 hPa South 5 km/h 8 km/h 68% 0.00 mm 138.97 W/m2
14:54 31.0 °C 24.0 °C 1009.9 hPa SW 3 km/h 4 km/h 67% 0.00 mm 194.88 W/m2
14:59 31.0 °C 24.0 °C 1009.9 hPa SSW 1 km/h 4 km/h 67% 0.00 mm 217.00 W/m2
15:04 31.0 °C 24.0 °C 1009.9 hPa South 6 km/h 8 km/h 67% 0.00 mm 142.42 W/m2
15:09 31.0 °C 24.0 °C 1009.8 hPa SSE 5 km/h 8 km/h 67% 0.00 mm 123.19 W/m2
15:14 31.0 °C 24.0 °C 1009.8 hPa NW 3 km/h 4 km/h 67% 0.00 mm 161.19 W/m2
15:19 31.0 °C 24.0 °C 1009.8 hPa North 12 km/h 16 km/h 66% 0.00 mm 159.90 W/m2
15:24 31.0 °C 24.0 °C 1009.8 hPa NNE 12 km/h 16 km/h 67% 0.00 mm 144.55 W/m2
15:29 31.0 °C 24.0 °C 1010.1 hPa NNE 11 km/h 12 km/h 67% 0.00 mm 163.56 W/m2
15:34 31.0 °C 24.0 °C 1010.1 hPa NE 12 km/h 16 km/h 67% 0.00 mm 205.23 W/m2
15:39 31.0 °C 24.0 °C 1010.1 hPa NE 14 km/h 16 km/h 67% 0.00 mm 161.77 W/m2
15:44 31.0 °C 24.0 °C 1010.1 hPa NNE 12 km/h 16 km/h 67% 0.00 mm 139.92 W/m2
15:49 31.0 °C 24.0 °C 1010.2 hPa NNE 10 km/h 12 km/h 67% 0.00 mm 129.15 W/m2
15:54 31.0 °C 24.0 °C 1009.9 hPa North 15 km/h 20 km/h 67% 0.00 mm 125.09 W/m2
15:59 30.0 °C 24.0 °C 1010.1 hPa North 17 km/h 20 km/h 67% 0.00 mm 115.70 W/m2
16:04 31.0 °C 24.0 °C 1009.9 hPa NNE 8 km/h 12 km/h 66% 0.00 mm 110.03 W/m2
16:09 31.0 °C 23.0 °C 1009.9 hPa NNE 13 km/h 16 km/h 66% 0.00 mm 103.68 W/m2
16:14 31.0 °C 23.0 °C 1009.9 hPa North 12 km/h 16 km/h 66% 0.00 mm 98.18 W/m2
16:19 30.0 °C 23.0 °C 1010.2 hPa NNE 12 km/h 12 km/h 66% 0.00 mm 97.97 W/m2
16:24 30.0 °C 23.0 °C 1010.2 hPa NNE 18 km/h 20 km/h 67% 0.00 mm 94.54 W/m2
16:29 30.0 °C 24.0 °C 1010.2 hPa NNE 13 km/h 16 km/h 67% 0.00 mm 87.91 W/m2
16:34 30.0 °C 24.0 °C 1010.2 hPa NNE 13 km/h 16 km/h 67% 0.00 mm 80.08 W/m2
16:39 30.0 °C 24.0 °C 1010.2 hPa NNE 12 km/h 16 km/h 68% 0.00 mm 64.50 W/m2
16:44 30.0 °C 23.0 °C 1010.4 hPa ENE 12 km/h 16 km/h 67% 0.00 mm 54.84 W/m2
16:49 30.0 °C 23.0 °C 1010.5 hPa NE 8 km/h 12 km/h 68% 0.00 mm 47.96 W/m2
16:54 30.0 °C 23.0 °C 1010.9 hPa ENE 10 km/h 12 km/h 68% 0.00 mm 41.65 W/m2
16:59 30.0 °C 23.0 °C 1010.9 hPa NE 13 km/h 16 km/h 68% 0.00 mm 35.39 W/m2
17:04 30.0 °C 23.0 °C 1010.9 hPa NE 7 km/h 12 km/h 68% 0.00 mm 31.34 W/m2
17:09 30.0 °C 24.0 °C 1010.9 hPa NE 10 km/h 12 km/h 69% 0.00 mm 26.46 W/m2
17:14 30.0 °C 23.0 °C 1010.9 hPa NE 10 km/h 12 km/h 69% 0.00 mm 19.78 W/m2
17:19 30.0 °C 23.0 °C 1010.9 hPa NE 10 km/h 12 km/h 69% 0.00 mm 13.28 W/m2
17:24 30.0 °C 23.0 °C 1010.9 hPa NNE 9 km/h 12 km/h 69% 0.00 mm 9.50 W/m2
17:29 30.0 °C 23.0 °C 1010.9 hPa NNE 5 km/h 8 km/h 69% 0.00 mm 6.40 W/m2
17:34 30.0 °C 23.0 °C 1011.1 hPa ESE 1 km/h 4 km/h 69% 0.00 mm 4.13 W/m2
17:39 30.0 °C 23.0 °C 1010.9 hPa SE 1 km/h 4 km/h 69% 0.00 mm 1.93 W/m2
17:44 30.0 °C 23.0 °C 1010.9 hPa North 3 km/h 4 km/h 69% 0.00 mm 0.48 W/m2
17:49 30.0 °C 23.0 °C 1010.9 hPa NNE 4 km/h 4 km/h 70% 0.00 mm 0.00 W/m2
17:54 29.0 °C 23.0 °C 1011.2 hPa East 3 km/h 4 km/h 70% 0.00 mm 0.00 W/m2
17:59 29.0 °C 23.0 °C 1011.2 hPa ESE 4 km/h 8 km/h 70% 0.00 mm 0.00 W/m2
18:04 29.0 °C 23.0 °C 1011.2 hPa ESE 4 km/h 4 km/h 70% 0.00 mm 0.00 W/m2
18:09 29.0 °C 24.0 °C 1011.2 hPa East 3 km/h 4 km/h 71% 0.00 mm 0.00 W/m2
18:14 29.0 °C 23.0 °C 1011.6 hPa SE 3 km/h 4 km/h 71% 0.00 mm 0.00 W/m2
18:19 29.0 °C 24.0 °C 1011.6 hPa ESE 8 km/h 8 km/h 72% 0.00 mm 0.00 W/m2
18:24 29.0 °C 24.0 °C 1011.6 hPa ESE 8 km/h 12 km/h 72% 0.00 mm 0.00 W/m2
18:29 29.0 °C 24.0 °C 1011.6 hPa ESE 9 km/h 12 km/h 72% 0.00 mm 0.00 W/m2
18:34 29.0 °C 24.0 °C 1011.6 hPa ESE 9 km/h 12 km/h 72% 0.00 mm 0.00 W/m2
18:39 29.0 °C 24.0 °C 1011.9 hPa ESE 9 km/h 12 km/h 72% 0.00 mm 0.00 W/m2
18:44 29.0 °C 24.0 °C 1011.9 hPa SE 6 km/h 8 km/h 73% 0.00 mm 0.00 W/m2
18:49 29.0 °C 24.0 °C 1012.2 hPa SE 10 km/h 16 km/h 73% 0.00 mm 0.00 W/m2
18:54 29.0 °C 24.0 °C 1012.3 hPa ESE 8 km/h 16 km/h 74% 0.00 mm 0.00 W/m2
18:59 29.0 °C 24.0 °C 1012.3 hPa ESE 10 km/h 16 km/h 74% 0.00 mm 0.00 W/m2
19:04 29.0 °C 24.0 °C 1012.5 hPa SE 6 km/h 8 km/h 75% 0.00 mm 0.00 W/m2
19:09 29.0 °C 24.0 °C 1012.6 hPa East 7 km/h 8 km/h 75% 0.00 mm 0.00 W/m2
19:14 29.0 °C 24.0 °C 1012.8 hPa ENE 4 km/h 8 km/h 75% 0.00 mm 0.00 W/m2
19:19 29.0 °C 24.0 °C 1012.7 hPa ESE 6 km/h 12 km/h 75% 0.00 mm 0.00 W/m2
19:24 28.0 °C 24.0 °C 1012.9 hPa SE 12 km/h 12 km/h 75% 0.00 mm 0.00 W/m2
19:29 28.0 °C 24.0 °C 1012.9 hPa ESE 9 km/h 12 km/h 75% 0.00 mm 0.00 W/m2
19:34 28.0 °C 24.0 °C 1012.9 hPa ESE 6 km/h 8 km/h 75% 0.00 mm 0.00 W/m2
19:39 28.0 °C 24.0 °C 1012.9 hPa ESE 3 km/h 4 km/h 76% 0.00 mm 0.00 W/m2
19:44 28.0 °C 24.0 °C 1013.3 hPa SE 14 km/h 20 km/h 77% 0.00 mm 0.00 W/m2
19:49 28.0 °C 24.0 °C 1013.3 hPa East 6 km/h 8 km/h 77% 0.00 mm 0.00 W/m2
19:54 28.0 °C 24.0 °C 1013.3 hPa ESE 6 km/h 8 km/h 77% 0.00 mm 0.00 W/m2
19:59 28.0 °C 24.0 °C 1013.1 hPa ESE 14 km/h 16 km/h 77% 0.00 mm 0.00 W/m2
20:04 28.0 °C 24.0 °C 1013.1 hPa ESE 5 km/h 8 km/h 78% 0.00 mm 0.00 W/m2
20:09 28.0 °C 24.0 °C 1013.3 hPa East 3 km/h 8 km/h 78% 0.00 mm 0.00 W/m2
20:14 28.0 °C 24.0 °C 1013.3 hPa East 1 km/h 4 km/h 78% 0.00 mm 0.00 W/m2
20:19 28.0 °C 24.0 °C 1013.3 hPa ESE 3 km/h 4 km/h 78% 0.00 mm 0.00 W/m2
20:24 28.0 °C 23.0 °C 1013.3 hPa ENE 3 km/h 4 km/h 77% 0.00 mm 0.00 W/m2
20:29 28.0 °C 24.0 °C 1013.3 hPa East 1 km/h 4 km/h 78% 0.00 mm 0.00 W/m2
20:34 28.0 °C 23.0 °C 1013.3 hPa ESE 1 km/h 4 km/h 77% 0.00 mm 0.00 W/m2
20:39 28.0 °C 24.0 °C 1013.3 hPa ESE 3 km/h 4 km/h 78% 0.00 mm 0.00 W/m2
20:44 28.0 °C 24.0 °C 1013.7 hPa East 1 km/h 4 km/h 78% 0.00 mm 0.00 W/m2
20:49 28.0 °C 23.0 °C 1013.7 hPa ESE 1 km/h 4 km/h 77% 0.00 mm 0.00 W/m2
20:54 28.0 °C 23.0 °C 1013.7 hPa ESE 1 km/h 4 km/h 77% 0.00 mm 0.00 W/m2
20:59 28.0 °C 23.0 °C 1013.7 hPa Calm     78% 0.00 mm 0.00 W/m2
21:04 28.0 °C 24.0 °C 1013.7 hPa Calm     78% 0.00 mm 0.00 W/m2
21:09 28.0 °C 23.0 °C 1013.7 hPa East 1 km/h 4 km/h 77% 0.00 mm 0.00 W/m2
21:14 28.0 °C 24.0 °C 1013.7 hPa NNE 1 km/h 4 km/h 78% 0.00 mm 0.00 W/m2
21:19 28.0 °C 23.0 °C 1013.7 hPa Calm   4 km/h 77% 0.00 mm 0.00 W/m2
21:24 28.0 °C 23.0 °C 1013.7 hPa NE 4 km/h 4 km/h 77% 0.00 mm 0.00 W/m2
21:29 28.0 °C 24.0 °C 1013.9 hPa NNE 4 km/h 8 km/h 79% 0.00 mm 0.00 W/m2
21:34 28.0 °C 24.0 °C 1013.7 hPa NNE 6 km/h 8 km/h 80% 0.00 mm 0.00 W/m2
21:39 28.0 °C 24.0 °C 1013.7 hPa NNE 4 km/h 4 km/h 80% 0.00 mm 0.00 W/m2
21:44 28.0 °C 24.0 °C 1013.7 hPa Calm   4 km/h 80% 0.00 mm 0.00 W/m2
21:49 28.0 °C 24.0 °C 1013.7 hPa SSE 4 km/h 4 km/h 80% 0.00 mm 0.00 W/m2
21:54 28.0 °C 24.0 °C 1013.7 hPa SE 4 km/h 4 km/h 79% 0.00 mm 0.00 W/m2
21:59 28.0 °C 24.0 °C 1013.7 hPa SE 2 km/h 4 km/h 78% 0.00 mm 0.00 W/m2
22:04 28.0 °C 23.0 °C 1013.7 hPa Calm   4 km/h 78% 0.00 mm 0.00 W/m2
22:09 28.0 °C 23.0 °C 1013.9 hPa SE 4 km/h 4 km/h 78% 0.00 mm 0.00 W/m2
22:14 28.0 °C 24.0 °C 1014.0 hPa SE 3 km/h 4 km/h 79% 0.00 mm 0.00 W/m2
22:19 28.0 °C 24.0 °C 1014.0 hPa Calm     79% 0.00 mm 0.00 W/m2
22:24 28.0 °C 24.0 °C 1013.7 hPa Calm     78% 0.00 mm 0.00 W/m2
22:29 28.0 °C 24.0 °C 1013.7 hPa Calm     78% 0.00 mm 0.00 W/m2
22:34 28.0 °C 24.0 °C 1013.7 hPa SSE 1 km/h 4 km/h 78% 0.00 mm 0.00 W/m2
22:39 28.0 °C 24.0 °C 1013.9 hPa SSE 4 km/h 8 km/h 78% 0.00 mm 0.00 W/m2
22:44 28.0 °C 24.0 °C 1014.0 hPa SE 4 km/h 8 km/h 78% 0.00 mm 0.00 W/m2
22:49 28.0 °C 23.0 °C 1014.0 hPa Calm   4 km/h 77% 0.00 mm 0.00 W/m2
22:54 28.0 °C 23.0 °C 1014.0 hPa SE 2 km/h 4 km/h 77% 0.00 mm 0.00 W/m2
22:59 28.0 °C 23.0 °C 1014.0 hPa ESE 6 km/h 8 km/h 77% 0.00 mm 0.00 W/m2
23:04 28.0 °C 23.0 °C 1014.0 hPa ESE 8 km/h 12 km/h 77% 0.00 mm 0.00 W/m2
23:09 28.0 °C 23.0 °C 1013.9 hPa SE 8 km/h 12 km/h 76% 0.00 mm 0.00 W/m2
23:14 28.0 °C 23.0 °C 1013.7 hPa ESE 5 km/h 8 km/h 75% 0.00 mm 0.00 W/m2
23:19 28.0 °C 23.0 °C 1013.3 hPa SE 3 km/h 8 km/h 78% 1.78 mm 0.00 W/m2
23:24 28.0 °C 23.0 °C 1013.3 hPa ESE 1 km/h 4 km/h 78% 3.56 mm 0.00 W/m2
23:29 28.0 °C 24.0 °C 1013.0 hPa Calm     81% 3.56 mm 0.00 W/m2
23:34 27.0 °C 24.0 °C 1013.3 hPa Calm     84% 3.56 mm 0.00 W/m2
23:39 27.0 °C 25.0 °C 1013.3 hPa East 4 km/h 4 km/h 87% 3.56 mm 0.00 W/m2
23:44 27.0 °C 25.0 °C 1013.2 hPa ENE 3 km/h 4 km/h 89% 5.33 mm 0.00 W/m2
23:49 26.0 °C 25.0 °C 1013.2 hPa SE 3 km/h 4 km/h 91% 5.33 mm 0.00 W/m2
23:54 26.0 °C 25.0 °C 1013.3 hPa ESE 8 km/h 8 km/h 91% 3.56 mm 0.00 W/m2
23:59 26.0 °C 24.0 °C 1013.0 hPa East 7 km/h 8 km/h 91% 3.56 mm 0.00 W/m2
PIMOHWEATHER Philippines
Compliments of Weather Underground - 2 mb